This is the latest recevied weather packets stored in our database for station/object W0AVQ. If no packets are shown the sender has not sent any weather packets the latest 10 day(s).
| Time | Temp. | Humidity | Pressure | Rain* | Wind** | Luminosity | Snow |
|---|---|---|---|---|---|---|---|
| 1778039335 | 9.44° C | 99% | 1012 hPa | 3.05 mm | - | 0 W/m² | - |
| 1778039032 | 9.44° C | 99% | 1011.7 hPa | 1.27 mm | - | 0 W/m² | - |
| 1778038729 | 9.44° C | 99% | 1012 hPa | 0 mm | - | 0 W/m² | - |
| 1778038426 | 9.44° C | 99% | 1012 hPa | 0 mm | - | 0 W/m² | - |
| 1778038123 | 9.44° C | 99% | 1011.5 hPa | 0 mm | - | 0 W/m² | - |
| 1778037819 | 9.44° C | 99% | 1011.6 hPa | 0 mm | - | 0 W/m² | - |
| 1778037516 | 10° C | 99% | 1011.3 hPa | 1.78 mm | - | 0 W/m² | - |
| 1778037213 | 10° C | 99% | 1011.6 hPa | 1.78 mm | - | 0 W/m² | - |
| 1778036911 | 10° C | 99% | 1011.6 hPa | 0 mm | - | 0 W/m² | - |
| 1778036609 | 10° C | 99% | 1011.6 hPa | 0 mm | - | 0 W/m² | - |
| 1778036306 | 10° C | 99% | 1011.4 hPa | 0 mm | - | 0 W/m² | - |
| 1778036002 | 10° C | 99% | 1011 hPa | 0 mm | - | 0 W/m² | - |
| 1778035699 | 10° C | 99% | 1010.9 hPa | 0 mm | - | 0 W/m² | - |
| 1778035396 | 10° C | 99% | 1010.7 hPa | 0 mm | - | 0 W/m² | - |
| 1778035092 | 10° C | 99% | 1010.8 hPa | 0 mm | - | 0 W/m² | - |
| 1778034789 | 10° C | 99% | 1010.8 hPa | 1.27 mm | - | 0 W/m² | - |
| 1778034486 | 10° C | 99% | 1010.8 hPa | 1.27 mm | - | 0 W/m² | - |
| 1778034184 | 10° C | 99% | 1011.1 hPa | 0 mm | - | 0 W/m² | - |
| 1778033882 | 10° C | 99% | 1010.5 hPa | 1.78 mm | - | 0 W/m² | - |
| 1778033578 | 10° C | 99% | 1010.6 hPa | 1.78 mm | - | 0 W/m² | - |
| 1778033275 | 10° C | 99% | 1010.5 hPa | 0 mm | - | 0 W/m² | - |
| 1778032973 | 10° C | 99% | 1010.1 hPa | 0 mm | - | 0 W/m² | - |
| 1778032670 | 10° C | 99% | 1010.2 hPa | 0 mm | - | 0 W/m² | - |
| 1778032368 | 10° C | 99% | 1010.2 hPa | 0 mm | - | 0 W/m² | - |
| 1778032064 | 10° C | 99% | 1010 hPa | 0 mm | - | 0 W/m² | - |
* Rain latest hour (hover to see other rain measurements)
** Current wind speed in m/s (hover to see current wind gust speed)